SCP
0 0 0 0 0 0 0 0 0 0 0 0 0 0 0 0 0 0 0 0 0 0 0 0 0 0 0 0 0 0 0 0 0 0 0 0 0 0 0 0 0 0 0 0 0 0 0 -0 -0 -0 0 0 0 -0
0 0 0 0 0 0 0 0 0 0 0 0 0 0 0 0 0 0 0 0 0 0 0 0 0 0 0 0 0 0 0 0 0 0 0 0 0 0 0 0 0 0 0 0 0 0 0 0 -0 -0 -0 0 -0 -0
0 0 0 0 0 0 0 0 0 0 0 0 0 0 0 0 0 0 0 0 0 0 0 0 0 0 0 0 0 0 0 0 0 0 0 0 0 0 0 0 0 0 0 0 0 0 0 0 -0 0 -0 -0 -0 -0
0 0 0 0 0 0 0 0 0 0 0 0 0 0 0 0 0 0 0 0 0 0 0 0 0 0 0 0 0 0 0 0 0 0 0 0 0 0 0 0 0 0 0 0 0 -0 0 0 0 -0 -0 -0 -0 -0
0 0 0 0 0 0 0 0 0 0 0 0 0 0 0 0 0 0 0 0 0 0 0 0 0 0 0 0 0 0 0 0 0 0 0 0 0 0 0 0 0 0 0 0 0 0 -0 -0 -0 -0 -0 -0 -0 0
0 0 0 0 0 0 0 0 0 0 0 0 0 0 0 0 0 0 0 0 0 0 0 0 0 0 0 0 0 0 0 0 0 0 0 0 0 0 0 0 0 0 0 0 0 0 -0 -0 -0 -0 -0 -0 0 0
0 0 0 0 0 0 0 0 0 0 0 0 0 0 0 0 0 0 0 0 0 0 0 0 0 0 0 0 0 0 0 0 0 0 0 0 0 0 0 0 0 0 0 0 0 -0 -0 -0 0 -0 -0 0 0 0
0 0 0 0 0 0 0 0 0 0 0 0 0 0 0 0 0 0 0 0 0 0 0 0 0 0 0 0 0 0 0 0 0 0 0 0 0 0 -0 0 0 0 0 -0 -0 0 0 0 0 0 0 0 0 0
0 0 0 0 0 0 0 0 0 0 0 0 0 0 0 0 0 0 0 0 0 0 0 0 0 0 0 0 0 0 0 0 0 0 0 0 0 -0 -0 0 0 0 0 0 0 0 0 0 0 0 0 0 0 0
0 0 0 0 0 0 0 0 0 0 0 0 0 0 0 0 0 0 0 0 0 0 0 0 0 0 0 0 -0 0 0 0 0 0 0 0 0 0 0 0 0 0 0 0 0 0 0 0 0 0 0 0 0 0
0 0 0 0 0 0 0 0 0 0 0 0 0 0 0 0 0 0 0 0 0 0 0 0 0 0 0 0 0 0 0 0 0 0 0 0 -0 -0 0 0 0 0 -0 -0 0 0 0 0 0 0 0 0 0 0
0 0 0 0 0 0 0 0 0 0 0 0 0 0 0 0 0 0 0 0 0 0 0 0 0 0 0 0 0 0 0 0 -0 0 0 -0 -0 0 0 -0 0 0 0 -0 0 0 0 0 0 0 0 0 0 0
0 0 0 0 0 0 0 0 0 0 0 0 0 0 0 0 0 0 0 0 0 0 0 0 -0 0 0 -0 -0 0 0 0 0 0 -0 0 0 0 0 -0 -0 0 -0 0 0 0 0 0 0 0 0 0 0 0
0 0 0 0 0 0 0 0 0 0 0 0 0 0 0 0 0 0 0 0 0 0 0 0 -0 -0 -0 0 0 0 -0 0 0 0 -0 -0 0 -0 -0 -0 -0 0 -0 0 0 0 0 0 0 0 0 0 0 0
0 0 0 0 0 0 0 0 0 0 0 0 0 0 0 0 0 0 0 0 0 -0 0 -0 -0 -0 -0 -0 0 0 0 -0 0 0 -0 0 0 0 0 0 0 0 -0 0 0 0 0 0 0 0 0 0 0 0
0 0 0 0 0 0 0 0 0 0 0 0 0 0 0 0 0 0 0 0 -0 -0 -0 -0 -0 -0 0 0 0 0 0 0 -0 -0 -0 0 0 0 -0 0 0 -0 -0 0 0 0 0 0 0 0 0 0 0 0
0 0 0 0 0 0 0 0 0 0 0 0 0 0 0 0 0 0 0 0 0 0 -0 -0 -0 -0 0 0 0 0 0 0 0 -0 -0 0 0 0 -0 0 0 0 -0 0 0 0 0 0 0 0 0 0 0 0
0 0 0 0 0 0 0 0 0 0 0 0 0 0 0 0 0 0 0 0 0 0 0 -0 -0 0 0 0 -0 -0 0 -0 -0 -0 0 0 -0 -0 0 0 0 0 -0 0 0 0 0 0 0 0 0 0 0 0
0 0 0 0 0 0 0 0 0 0 0 0 0 0 0 0 0 0 0 0 0 0 0 0 0 0 0 0 -0 0 -0 0 0 0 0 0 -0 -0 -0 -0 -0 -0 -0 -0 0 0 0 0 0 0 0 0 0 0
0 0 0 0 0 0 0 0 0 0 0 0 0 0 0 0 0 0 0 0 0 0 0 -0 0 0 0 0 0 0 0 0 0 0 0 0 0 -0 -0 -0 0 -0 0 0 0 0 0 0 0 0 0 0 0 0
0 0 0 0 0 0 0 0 0 0 0 0 0 0 0 0 0 0 0 0 0 0 0 0 0 0 0 0 0 0 0 -0 0 0 0 0 0 0 0 0 -0 -0 0 0 0 0 0 0 0 0 0 0 0 0
0 0 0 0 0 0 0 0 0 0 0 0 0 0 0 0 0 0 0 0 0 0 0 0 0 0 0 0 0 0 0 0 0 0 0 -0 0 0 0 0 -0 -0 0 0 0 0 0 0 0 0 0 0 0 0
0 0 0 0 0 0 0 0 0 0 0 0 0 0 0 0 -0 0 0 0 0 0 0 0 0 0 0 0 0 0 0 0 0 0 0 -0 0 -0 0 0 0 0 0 0 0 0 0 0 0 0 0 0 0 0
0 0 0 0 0 0 0 0 0 0 0 0 0 0 0 0 0 0 0 0 0 0 0 0 0 0 0 0 0 0 0 0 0 0 0 0 0 0 -0 0 0 0 0 0 0 0 0 0 0 0 0 0 0 0
0 0 0 0 -0 0 0 0 0 0 0 0 0 0 0 0 0 0 0 0 0 0 0 0 0 0 0 0 0 0 0 0 0 0 0 0 0 0 0 0 0 0 0 0 -0 0 0 0 0 0 0 0 0 0
0 0 0 0 0 0 0 0 0 0 0 0 0 0 0 0 0 0 0 0 0 0 0 0 0 0 0 0 0 0 0 0 0 0 0 0 -0 0 0 0 0 0 0 0 0 0 0 0 0 0 0 0 0 0
0 0 0 0 0 -0 0 0 0 0 0 0 0 0 0 0 0 0 0 0 0 0 0 0 0 0 0 0 0 0 0 -0 0 0 0 0 0 0 0 0 0 0 0 0 0 0 0 0 0 0 0 0 0 0
0 0 0 0 0 0 0 0 0 0 0 0 0 0 0 0 0 0 0 0 0 0 0 0 0 0 0 0 0 0 0 0 0 0 0 0 0 0 0 0 0 0 0 0 0 0 0 0 0 0 0 0 0 0
0 0 0 0 0 0 0 0 0 0 0 0 0 0 0 0 0 0 -0 -0 -0 0 0 0 0 0 0 0 0 0 0 0 -0 0 0 0 0 0 0 0 0 0 0 0 0 0 0 0 0 0 0 0 0 0
0 0 0 0 0 0 0 0 0 0 0 0 0 0 0 0 0 0 0 0 0 -0 -0 -0 -0 -0 0 0 0 0 -0 -0 -0 0 0 0 0 0 0 0 0 0 0 0 0 0 0 0 0 0 0 0 0 0
0 0 0 0 0 0 0 -0 0 0 0 0 0 0 0 0 0 0 0 0 0 -0 -0 -0 -0 -0 -0 0 0 0 0 0 0 0 0 0 0 0 0 0 0 0 0 0 0 0 0 0 0 0 0 0 0 0
0 0 0 0 0 -0 -0 0 0 0 0 0 0 0 0 0 0 0 0 0 -0 -0 -0 -0 0 -0 -0 -0 0 0 0 0 -0 0 0 0 0 0 0 0 0 0 0 0 0 0 0 0 0 0 0 0 0 0
0 0 0 -0 0 0 0 0 0 0 0 0 0 0 0 0 0 0 0 -0 0 0 -0 -0 -0 -0 -0 -0 -0 -0 -0 0 0 -0 -0 0 0 0 0 0 0 0 0 0 0 0 0 0 0 0 0 0 0 0
Wind_Speed_500mb
50 50 50 48 47 48 49 51 52 51 57 54 46 36 27 22 22 31 34 21 31 18 58 66 49 34 23 12 6 16 20 5 6 6 2 3 5 6 7 8 7 5 5 5 5 7 11 22 10 11 16 43 52 62
48 47 46 44 44 44 46 50 51 47 56 45 41 31 19 19 21 27 36 39 34 28 56 74 84 90 85 74 54 16 11 5 8 4 5 4 7 6 7 7 4 6 8 5 9 10 7 14 21 28 47 55 48 64
44 42 40 40 40 42 45 48 47 43 44 41 38 30 20 18 24 29 33 34 37 28 57 38 48 38 26 15 33 24 18 18 15 16 8 2 9 4 5 7 6 6 5 6 5 6 11 43 21 42 58 60 68 67
39 38 37 37 38 39 42 44 45 38 32 35 37 27 23 25 27 27 32 35 34 20 12 24 18 60 73 59 52 53 43 28 19 15 8 5 6 16 6 8 7 4 3 7 12 20 29 9 39 59 68 62 62 61
32 33 33 34 35 36 38 39 38 32 27 29 32 30 29 26 24 21 28 38 41 26 11 37 78 8 8 24 32 54 62 64 27 8 7 6 8 7 5 4 6 12 8 5 8 12 18 34 52 57 54 57 60 52
27 29 31 32 33 34 34 36 36 35 35 32 30 25 23 20 17 17 10 9 12 24 13 8 33 35 28 12 19 32 49 54 26 12 9 10 11 10 5 5 5 20 18 23 12 28 39 47 42 38 49 54 41 30
25 25 27 30 31 32 33 29 32 33 36 31 21 22 23 17 17 17 11 18 16 9 9 14 17 15 33 13 5 14 33 27 21 11 11 11 14 17 6 8 2 13 17 22 25 24 17 20 29 39 36 31 26 31
25 26 26 29 30 28 29 28 23 23 30 29 23 28 32 32 29 24 12 14 16 30 10 6 10 19 15 11 6 13 17 27 16 13 9 9 5 7 7 7 9 10 15 13 17 15 23 31 26 27 29 19 31 40
26 28 27 28 29 31 29 32 27 24 25 27 28 32 20 5 7 11 21 24 22 19 7 8 4 8 21 9 9 10 16 6 10 5 7 7 3 8 8 4 3 4 5 8 13 15 17 13 22 23 21 23 40 46
24 26 28 28 28 29 30 31 32 28 25 22 22 10 6 7 25 34 9 5 6 10 11 9 7 8 15 8 7 8 6 5 5 9 7 6 7 6 5 3 7 6 6 1 7 13 14 14 16 16 19 25 38 47
26 27 28 29 28 30 31 30 28 29 20 18 11 6 22 37 31 9 6 7 7 7 11 13 20 13 15 7 7 8 3 2 2 7 5 4 6 5 13 4 5 5 7 2 3 3 7 7 10 10 17 34 38 52
27 27 29 29 29 32 31 29 27 23 14 16 23 35 19 7 9 5 5 5 8 6 8 8 12 17 18 16 8 6 4 2 8 3 2 6 6 11 16 5 2 7 7 7 12 6 5 8 16 10 16 36 48 55
28 28 29 29 31 30 25 22 21 26 13 17 7 7 7 6 5 5 5 5 4 6 10 18 10 9 12 14 11 4 4 8 1 1 6 7 8 17 12 6 6 8 9 11 14 11 10 14 23 19 30 33 47 53
28 29 27 26 24 18 17 19 20 10 4 5 5 9 7 7 9 8 6 2 20 16 39 34 14 10 11 7 3 7 8 4 3 3 8 3 20 17 12 8 10 13 14 16 14 16 17 24 25 30 36 41 46 57
27 30 26 23 15 24 26 19 8 6 6 7 8 9 12 21 21 26 33 28 32 44 46 24 16 8 5 4 6 6 3 5 8 8 5 8 22 14 12 10 10 15 17 14 18 19 23 24 25 31 37 38 46 57
26 31 18 10 23 31 33 32 11 10 8 10 16 11 20 17 24 27 21 19 38 41 34 9 5 5 7 6 6 7 5 6 7 5 3 21 18 11 11 13 14 17 20 17 25 25 26 26 33 39 39 42 50 55
25 27 16 18 20 20 12 11 9 13 12 11 16 29 34 34 32 43 44 28 33 33 4 7 4 7 9 8 8 7 6 6 21 2 12 10 6 13 13 14 18 21 23 24 24 22 26 28 36 44 47 45 46 50
35 26 17 11 22 19 13 13 10 11 15 26 18 30 41 50 47 43 51 45 34 16 4 7 6 4 7 6 4 3 7 6 5 4 11 2 6 12 18 18 19 22 26 24 26 29 32 33 36 38 39 42 48 50
29 21 15 11 18 18 6 9 16 11 20 19 32 45 48 51 59 59 54 45 37 36 12 10 7 5 6 8 15 31 19 17 9 12 12 8 9 14 18 20 20 24 25 24 27 27 29 36 36 40 40 40 37 41
23 24 19 16 18 5 9 10 10 13 12 13 26 33 28 40 51 52 48 39 37 25 14 10 8 13 14 44 41 38 28 14 20 18 17 19 17 21 14 11 21 29 27 21 29 31 35 33 35 36 42 44 52 47
19 15 14 23 27 23 11 10 12 14 18 17 28 35 23 36 45 47 48 38 32 16 11 30 37 40 34 32 31 34 35 31 27 24 20 32 28 27 22 17 17 30 24 26 30 35 33 35 34 35 38 49 42 45
21 14 14 20 19 16 18 19 15 12 13 26 41 33 17 9 14 17 15 17 15 27 44 44 47 49 36 43 40 32 19 21 20 18 17 31 38 34 32 30 27 32 29 27 29 36 42 35 36 34 44 32 32 32
16 10 9 8 19 15 12 17 13 12 7 9 9 7 8 9 11 13 11 18 23 38 39 43 42 42 43 35 35 29 21 20 25 18 23 33 37 33 35 31 32 30 28 30 32 30 41 42 44 40 44 42 39 39
15 6 7 9 16 9 9 11 14 12 12 7 6 8 7 8 8 8 5 9 11 12 41 45 37 32 31 30 22 20 18 18 19 18 25 36 38 36 34 32 34 25 18 27 26 29 37 51 49 54 51 37 31 35
10 11 10 14 14 11 9 8 11 10 10 12 12 9 6 7 3 3 3 9 20 9 26 31 34 40 37 29 20 22 24 17 15 16 29 30 31 39 36 30 27 24 28 38 32 27 45 50 54 46 24 19 32 28
10 14 15 11 11 11 11 6 5 4 5 7 10 7 9 5 3 1 1 11 13 11 12 23 28 30 15 16 24 27 26 17 10 13 21 28 33 42 40 40 38 35 24 31 44 42 31 34 36 38 34 30 31 32
8 11 21 22 15 13 8 11 16 11 10 6 6 7 2 5 5 5 7 10 14 18 9 15 17 17 16 17 17 12 13 14 6 4 8 24 26 33 33 37 45 43 36 27 33 39 46 34 29 43 42 37 39 37
17 12 9 11 12 23 7 5 7 4 2 8 14 3 4 5 3 8 10 23 22 27 25 30 25 18 14 10 7 13 15 17 18 14 6 21 25 26 27 26 28 33 40 40 26 36 40 34 32 37 46 46 46 39
14 18 18 19 16 12 10 9 6 7 5 4 4 4 5 9 15 16 24 30 32 30 34 33 32 25 24 15 5 10 15 20 27 28 26 28 34 40 37 33 26 27 37 50 35 34 33 41 43 38 42 46 43 40
17 27 12 8 7 5 4 10 5 12 25 20 8 1 16 34 33 30 28 30 26 27 26 24 22 19 19 15 15 13 7 4 17 32 43 42 39 28 38 40 35 30 31 46 48 38 35 26 33 32 40 42 44 44
14 7 8 11 7 6 5 15 29 13 7 11 5 24 18 18 39 36 32 24 26 27 24 24 21 24 23 24 22 18 14 11 16 23 23 33 42 34 34 47 46 36 39 41 51 55 41 34 34 38 38 40 40 40
9 13 7 4 4 9 23 4 5 5 10 22 13 28 36 25 10 19 27 17 19 27 31 30 24 26 28 28 28 29 26 22 24 19 21 25 25 26 26 31 48 48 38 41 42 52 61 40 45 46 38 37 35 39
17 21 17 3 12 6 3 4 11 11 9 12 13 22 11 8 9 8 17 22 24 23 23 22 19 18 18 18 23 31 35 34 27 9 8 13 12 13 29 28 47 51 45 36 47 51 46 41 48 58 48 40 35 38
Wind_Direction_500mb
304 307 310 312 314 317 321 326 329 327 328 330 327 316 301 292 272 272 279 274 238 245 273 275 272 256 239 209 163 305 332 277 11 52 41 319 274 281 303 261 268 281 307 270 265 270 283 9 339 3 314 304 302 303
303 306 308 312 314 316 322 326 328 328 334 336 333 323 300 308 291 270 272 284 259 263 265 285 281 279 272 263 261 258 248 220 220 130 226 234 248 257 267 278 194 259 209 255 217 246 307 333 315 311 318 310 312 312
301 303 306 310 313 317 322 324 328 329 335 337 339 332 320 308 296 278 276 278 290 289 302 287 290 293 253 267 238 213 234 221 224 223 180 244 250 224 247 243 255 249 153 242 322 242 287 310 313 329 325 322 326 321
301 303 305 308 310 315 321 326 329 330 336 337 331 332 320 309 299 292 282 288 287 291 276 290 286 298 293 274 244 228 249 254 246 210 209 210 230 197 244 250 227 243 192 250 254 285 323 352 325 323 323 328 329 334
297 301 304 305 305 311 320 328 335 336 337 341 332 326 315 309 299 278 281 283 283 262 278 294 308 331 321 304 247 238 240 228 222 195 217 228 237 228 242 259 236 182 220 224 262 300 306 293 312 322 321 326 333 339
299 306 309 309 307 308 319 329 338 336 337 331 328 324 327 316 303 308 293 275 293 224 287 299 299 299 315 328 277 241 225 214 210 205 225 239 248 205 267 248 221 211 229 277 270 298 300 303 318 330 327 331 338 358
299 309 316 317 315 316 322 332 341 340 334 331 330 340 340 336 298 277 277 310 298 267 270 296 291 293 333 323 234 211 206 205 214 231 227 242 245 205 260 263 253 237 285 294 293 312 307 331 325 333 330 333 1 71
297 304 316 324 326 321 319 327 330 333 333 327 322 322 322 313 291 300 319 257 290 258 263 274 278 313 354 306 252 207 186 202 228 220 234 219 196 222 258 221 273 291 313 314 318 315 302 320 335 343 345 359 70 81
295 302 308 314 322 324 318 321 325 308 311 321 329 315 311 329 318 316 309 295 277 234 257 242 267 279 331 309 288 219 194 176 220 231 239 177 154 232 232 184 286 296 324 309 336 333 344 348 351 355 14 58 83 88
291 297 305 309 321 320 318 317 322 324 312 323 332 321 300 313 328 322 264 246 211 217 236 258 255 277 313 307 298 264 206 221 210 235 166 221 249 262 175 77 32 1 4 295 339 346 9 21 18 17 40 84 101 105
292 298 303 311 318 317 320 310 312 321 344 348 327 282 285 304 297 241 239 222 187 247 230 242 235 247 278 225 252 245 238 191 312 264 177 277 273 224 170 82 52 2 323 3 310 286 352 22 56 76 89 108 120 116
292 298 303 311 313 313 315 312 300 317 326 316 306 296 301 291 238 256 247 213 209 252 215 236 259 240 267 229 243 262 242 69 249 155 135 276 254 161 156 105 84 25 66 83 117 88 52 74 100 84 108 111 124 122
290 296 302 311 312 314 314 317 303 310 328 325 301 284 266 265 259 232 233 232 252 294 267 281 296 233 263 233 252 275 232 235 35 32 235 232 164 159 160 137 112 116 98 108 114 101 91 104 115 125 125 129 131 131
286 291 299 307 311 311 312 310 327 303 309 296 283 276 241 232 238 219 215 167 267 273 297 305 294 239 254 226 203 255 234 107 320 261 243 224 176 171 169 154 134 132 119 123 109 120 116 123 120 128 134 140 140 136
285 286 294 295 275 301 313 329 335 275 238 236 235 246 240 242 267 269 284 297 297 325 316 314 302 269 250 243 235 283 237 249 211 233 246 162 166 172 159 154 144 135 126 140 122 124 126 136 127 125 139 143 144 140
288 291 302 277 287 295 294 289 258 238 230 226 230 249 258 288 278 280 285 298 311 329 316 288 298 282 266 221 205 282 172 229 276 278 316 149 160 177 153 152 150 142 137 134 143 138 134 143 136 133 138 138 139 145
273 275 269 299 327 336 316 257 219 229 236 228 239 237 250 273 270 277 289 297 320 320 289 291 272 261 290 305 6 360 360 333 312 341 148 157 160 161 151 149 148 149 150 145 145 144 142 146 150 142 142 147 150 146
263 275 260 292 306 305 289 238 240 246 248 235 248 249 244 256 263 270 276 286 302 282 242 252 300 286 280 271 214 260 303 332 310 193 170 226 215 149 150 146 152 156 151 156 151 157 151 144 160 148 147 147 153 148
272 278 249 249 292 306 275 237 215 260 247 249 256 260 262 269 273 276 279 279 264 272 269 258 239 236 250 260 276 291 273 234 213 184 199 199 178 158 140 154 161 156 153 156 161 163 160 156 157 163 157 164 159 161
263 265 260 248 255 241 253 246 238 261 265 263 266 269 254 260 276 276 275 265 250 251 213 211 208 224 258 290 290 284 289 260 210 180 189 185 188 185 173 156 165 167 174 165 167 163 167 163 166 166 165 163 164 161
262 268 266 222 225 217 275 252 248 243 269 254 274 277 265 269 264 262 262 258 214 209 224 220 226 241 248 294 278 281 261 250 229 228 227 189 191 195 189 182 165 163 175 176 173 154 167 166 161 166 172 165 155 155
255 271 282 218 207 210 240 238 238 269 272 262 279 267 257 259 263 254 209 177 209 221 220 220 230 241 251 244 268 265 247 234 217 231 211 193 183 188 192 188 172 172 189 179 180 176 167 162 167 166 159 158 163 159
254 263 258 248 207 221 252 223 232 232 240 252 239 247 238 233 253 290 220 214 224 227 220 216 221 237 260 252 247 235 239 217 222 227 204 194 189 191 187 184 186 178 183 190 190 181 181 165 167 170 161 158 162 164
230 228 233 229 210 258 246 228 221 243 246 240 250 263 275 237 252 238 264 276 285 265 208 215 219 238 222 217 216 209 192 202 216 215 196 188 187 189 193 193 198 201 191 180 184 197 187 179 175 163 153 152 168 177
196 224 218 230 219 218 234 240 204 218 241 226 245 260 271 216 259 262 256 323 17 128 176 190 195 202 209 204 213 201 191 198 206 199 184 191 192 190 199 201 195 195 201 179 164 160 174 181 181 160 161 198 188 188
219 217 208 221 209 212 224 248 255 239 297 253 237 196 191 254 222 62 19 341 18 60 138 178 191 203 195 199 193 195 200 195 210 212 197 193 195 195 194 196 195 195 209 212 197 179 159 161 172 183 188 194 194 197
237 243 227 233 249 259 276 266 270 237 227 254 355 310 12 272 61 348 17 62 93 72 97 168 190 199 181 180 199 218 206 201 181 11 238 205 197 203 209 208 207 204 202 200 208 207 190 193 203 201 198 201 203 196
239 260 235 219 266 238 246 247 251 254 340 312 314 276 288 336 52 24 100 112 101 98 83 86 91 101 105 112 153 185 178 188 212 213 193 211 214 213 218 228 232 219 210 201 207 210 203 197 213 209 205 202 200 199
241 240 240 243 230 249 234 219 261 210 208 266 275 280 280 47 61 133 129 117 112 98 89 83 74 65 66 69 126 196 212 219 224 222 222 216 213 220 220 222 216 210 207 204 200 207 218 221 219 223 220 216 220 221
249 241 236 233 205 237 4 351 339 316 302 286 243 327 58 70 81 103 115 117 112 102 91 77 63 43 45 46 59 67 76 229 243 238 242 240 235 225 214 210 202 196 199 201 199 191 204 204 209 210 211 213 213 206
258 273 250 238 245 249 251 292 306 288 249 121 96 90 83 74 82 87 90 91 97 84 61 46 52 57 48 47 41 29 12 335 296 272 257 258 241 235 216 215 209 207 205 203 201 203 203 202 199 199 208 215 216 214
231 218 242 297 67 350 333 305 338 352 68 111 82 105 100 90 79 59 85 87 55 41 44 46 52 48 36 34 33 25 11 344 325 303 255 229 221 228 214 218 213 201 202 207 208 202 206 211 205 207 210 209 213 217
233 256 268 79 2 332 290 21 25 5 73 110 114 124 89 89 84 99 77 66 57 50 50 44 40 37 34 27 14 13 13 4 356 340 213 213 198 198 206 205 211 202 192 200 200 194 201 216 211 207 208 212 215 214
Wind_Speed_850mb
50 50 50 48 47 48 49 51 52 51 57 54 46 36 27 22 22 31 34 21 31 18 58 66 49 34 23 12 6 16 20 5 6 6 2 3 5 6 7 8 7 5 5 5 5 7 11 22 10 11 16 43 52 62
48 47 46 44 44 44 46 50 51 47 56 45 41 31 19 19 21 27 36 39 34 28 56 74 84 90 85 74 54 16 11 5 8 4 5 4 7 6 7 7 4 6 8 5 9 10 7 14 21 28 47 55 48 64
44 42 40 40 40 42 45 48 47 43 44 41 38 30 20 18 24 29 33 34 37 28 57 38 48 38 26 15 33 24 18 18 15 16 8 2 9 4 5 7 6 6 5 6 5 6 11 43 21 42 58 60 68 67
39 38 37 37 38 39 42 44 45 38 32 35 37 27 23 25 27 27 32 35 34 20 12 24 18 60 73 59 52 53 43 28 19 15 8 5 6 16 6 8 7 4 3 7 12 20 29 9 39 59 68 62 62 61
32 33 33 34 35 36 38 39 38 32 27 29 32 30 29 26 24 21 28 38 41 26 11 37 78 8 8 24 32 54 62 64 27 8 7 6 8 7 5 4 6 12 8 5 8 12 18 34 52 57 54 57 60 52
27 29 31 32 33 34 34 36 36 35 35 32 30 25 23 20 17 17 10 9 12 24 13 8 33 35 28 12 19 32 49 54 26 12 9 10 11 10 5 5 5 20 18 23 12 28 39 47 42 38 49 54 41 30
25 25 27 30 31 32 33 29 32 33 36 31 21 22 23 17 17 17 11 18 16 9 9 14 17 15 33 13 5 14 33 27 21 11 11 11 14 17 6 8 2 13 17 22 25 24 17 20 29 39 36 31 26 31
25 26 26 29 30 28 29 28 23 23 30 29 23 28 32 32 29 24 12 14 16 30 10 6 10 19 15 11 6 13 17 27 16 13 9 9 5 7 7 7 9 10 15 13 17 15 23 31 26 27 29 19 31 40
26 28 27 28 29 31 29 32 27 24 25 27 28 32 20 5 7 11 21 24 22 19 7 8 4 8 21 9 9 10 16 6 10 5 7 7 3 8 8 4 3 4 5 8 13 15 17 13 22 23 21 23 40 46
24 26 28 28 28 29 30 31 32 28 25 22 22 10 6 7 25 34 9 5 6 10 11 9 7 8 15 8 7 8 6 5 5 9 7 6 7 6 5 3 7 6 6 1 7 13 14 14 16 16 19 25 38 47
26 27 28 29 28 30 31 30 28 29 20 18 11 6 22 37 31 9 6 7 7 7 11 13 20 13 15 7 7 8 3 2 2 7 5 4 6 5 13 4 5 5 7 2 3 3 7 7 10 10 17 34 38 52
27 27 29 29 29 32 31 29 27 23 14 16 23 35 19 7 9 5 5 5 8 6 8 8 12 17 18 16 8 6 4 2 8 3 2 6 6 11 16 5 2 7 7 7 12 6 5 8 16 10 16 36 48 55
28 28 29 29 31 30 25 22 21 26 13 17 7 7 7 6 5 5 5 5 4 6 10 18 10 9 12 14 11 4 4 8 1 1 6 7 8 17 12 6 6 8 9 11 14 11 10 14 23 19 30 33 47 53
28 29 27 26 24 18 17 19 20 10 4 5 5 9 7 7 9 8 6 2 20 16 39 34 14 10 11 7 3 7 8 4 3 3 8 3 20 17 12 8 10 13 14 16 14 16 17 24 25 30 36 41 46 57
27 30 26 23 15 24 26 19 8 6 6 7 8 9 12 21 21 26 33 28 32 44 46 24 16 8 5 4 6 6 3 5 8 8 5 8 22 14 12 10 10 15 17 14 18 19 23 24 25 31 37 38 46 57
26 31 18 10 23 31 33 32 11 10 8 10 16 11 20 17 24 27 21 19 38 41 34 9 5 5 7 6 6 7 5 6 7 5 3 21 18 11 11 13 14 17 20 17 25 25 26 26 33 39 39 42 50 55
25 27 16 18 20 20 12 11 9 13 12 11 16 29 34 34 32 43 44 28 33 33 4 7 4 7 9 8 8 7 6 6 21 2 12 10 6 13 13 14 18 21 23 24 24 22 26 28 36 44 47 45 46 50
35 26 17 11 22 19 13 13 10 11 15 26 18 30 41 50 47 43 51 45 34 16 4 7 6 4 7 6 4 3 7 6 5 4 11 2 6 12 18 18 19 22 26 24 26 29 32 33 36 38 39 42 48 50
29 21 15 11 18 18 6 9 16 11 20 19 32 45 48 51 59 59 54 45 37 36 12 10 7 5 6 8 15 31 19 17 9 12 12 8 9 14 18 20 20 24 25 24 27 27 29 36 36 40 40 40 37 41
23 24 19 16 18 5 9 10 10 13 12 13 26 33 28 40 51 52 48 39 37 25 14 10 8 13 14 44 41 38 28 14 20 18 17 19 17 21 14 11 21 29 27 21 29 31 35 33 35 36 42 44 52 47
19 15 14 23 27 23 11 10 12 14 18 17 28 35 23 36 45 47 48 38 32 16 11 30 37 40 34 32 31 34 35 31 27 24 20 32 28 27 22 17 17 30 24 26 30 35 33 35 34 35 38 49 42 45
21 14 14 20 19 16 18 19 15 12 13 26 41 33 17 9 14 17 15 17 15 27 44 44 47 49 36 43 40 32 19 21 20 18 17 31 38 34 32 30 27 32 29 27 29 36 42 35 36 34 44 32 32 32
16 10 9 8 19 15 12 17 13 12 7 9 9 7 8 9 11 13 11 18 23 38 39 43 42 42 43 35 35 29 21 20 25 18 23 33 37 33 35 31 32 30 28 30 32 30 41 42 44 40 44 42 39 39
15 6 7 9 16 9 9 11 14 12 12 7 6 8 7 8 8 8 5 9 11 12 41 45 37 32 31 30 22 20 18 18 19 18 25 36 38 36 34 32 34 25 18 27 26 29 37 51 49 54 51 37 31 35
10 11 10 14 14 11 9 8 11 10 10 12 12 9 6 7 3 3 3 9 20 9 26 31 34 40 37 29 20 22 24 17 15 16 29 30 31 39 36 30 27 24 28 38 32 27 45 50 54 46 24 19 32 28
10 14 15 11 11 11 11 6 5 4 5 7 10 7 9 5 3 1 1 11 13 11 12 23 28 30 15 16 24 27 26 17 10 13 21 28 33 42 40 40 38 35 24 31 44 42 31 34 36 38 34 30 31 32
8 11 21 22 15 13 8 11 16 11 10 6 6 7 2 5 5 5 7 10 14 18 9 15 17 17 16 17 17 12 13 14 6 4 8 24 26 33 33 37 45 43 36 27 33 39 46 34 29 43 42 37 39 37
17 12 9 11 12 23 7 5 7 4 2 8 14 3 4 5 3 8 10 23 22 27 25 30 25 18 14 10 7 13 15 17 18 14 6 21 25 26 27 26 28 33 40 40 26 36 40 34 32 37 46 46 46 39
14 18 18 19 16 12 10 9 6 7 5 4 4 4 5 9 15 16 24 30 32 30 34 33 32 25 24 15 5 10 15 20 27 28 26 28 34 40 37 33 26 27 37 50 35 34 33 41 43 38 42 46 43 40
17 27 12 8 7 5 4 10 5 12 25 20 8 1 16 34 33 30 28 30 26 27 26 24 22 19 19 15 15 13 7 4 17 32 43 42 39 28 38 40 35 30 31 46 48 38 35 26 33 32 40 42 44 44
14 7 8 11 7 6 5 15 29 13 7 11 5 24 18 18 39 36 32 24 26 27 24 24 21 24 23 24 22 18 14 11 16 23 23 33 42 34 34 47 46 36 39 41 51 55 41 34 34 38 38 40 40 40
9 13 7 4 4 9 23 4 5 5 10 22 13 28 36 25 10 19 27 17 19 27 31 30 24 26 28 28 28 29 26 22 24 19 21 25 25 26 26 31 48 48 38 41 42 52 61 40 45 46 38 37 35 39
17 21 17 3 12 6 3 4 11 11 9 12 13 22 11 8 9 8 17 22 24 23 23 22 19 18 18 18 23 31 35 34 27 9 8 13 12 13 29 28 47 51 45 36 47 51 46 41 48 58 48 40 35 38
Wind_Direction_850mb
304 307 310 312 314 317 321 326 329 327 328 330 327 316 301 292 272 272 279 274 238 245 273 275 272 256 239 209 163 305 332 277 11 52 41 319 274 281 303 261 268 281 307 270 265 270 283 9 339 3 314 304 302 303
303 306 308 312 314 316 322 326 328 328 334 336 333 323 300 308 291 270 272 284 259 263 265 285 281 279 272 263 261 258 248 220 220 130 226 234 248 257 267 278 194 259 209 255 217 246 307 333 315 311 318 310 312 312
301 303 306 310 313 317 322 324 328 329 335 337 339 332 320 308 296 278 276 278 290 289 302 287 290 293 253 267 238 213 234 221 224 223 180 244 250 224 247 243 255 249 153 242 322 242 287 310 313 329 325 322 326 321
301 303 305 308 310 315 321 326 329 330 336 337 331 332 320 309 299 292 282 288 287 291 276 290 286 298 293 274 244 228 249 254 246 210 209 210 230 197 244 250 227 243 192 250 254 285 323 352 325 323 323 328 329 334
297 301 304 305 305 311 320 328 335 336 337 341 332 326 315 309 299 278 281 283 283 262 278 294 308 331 321 304 247 238 240 228 222 195 217 228 237 228 242 259 236 182 220 224 262 300 306 293 312 322 321 326 333 339
299 306 309 309 307 308 319 329 338 336 337 331 328 324 327 316 303 308 293 275 293 224 287 299 299 299 315 328 277 241 225 214 210 205 225 239 248 205 267 248 221 211 229 277 270 298 300 303 318 330 327 331 338 358
299 309 316 317 315 316 322 332 341 340 334 331 330 340 340 336 298 277 277 310 298 267 270 296 291 293 333 323 234 211 206 205 214 231 227 242 245 205 260 263 253 237 285 294 293 312 307 331 325 333 330 333 1 71
297 304 316 324 326 321 319 327 330 333 333 327 322 322 322 313 291 300 319 257 290 258 263 274 278 313 354 306 252 207 186 202 228 220 234 219 196 222 258 221 273 291 313 314 318 315 302 320 335 343 345 359 70 81
295 302 308 314 322 324 318 321 325 308 311 321 329 315 311 329 318 316 309 295 277 234 257 242 267 279 331 309 288 219 194 176 220 231 239 177 154 232 232 184 286 296 324 309 336 333 344 348 351 355 14 58 83 88
291 297 305 309 321 320 318 317 322 324 312 323 332 321 300 313 328 322 264 246 211 217 236 258 255 277 313 307 298 264 206 221 210 235 166 221 249 262 175 77 32 1 4 295 339 346 9 21 18 17 40 84 101 105
292 298 303 311 318 317 320 310 312 321 344 348 327 282 285 304 297 241 239 222 187 247 230 242 235 247 278 225 252 245 238 191 312 264 177 277 273 224 170 82 52 2 323 3 310 286 352 22 56 76 89 108 120 116
292 298 303 311 313 313 315 312 300 317 326 316 306 296 301 291 238 256 247 213 209 252 215 236 259 240 267 229 243 262 242 69 249 155 135 276 254 161 156 105 84 25 66 83 117 88 52 74 100 84 108 111 124 122
290 296 302 311 312 314 314 317 303 310 328 325 301 284 266 265 259 232 233 232 252 294 267 281 296 233 263 233 252 275 232 235 35 32 235 232 164 159 160 137 112 116 98 108 114 101 91 104 115 125 125 129 131 131
286 291 299 307 311 311 312 310 327 303 309 296 283 276 241 232 238 219 215 167 267 273 297 305 294 239 254 226 203 255 234 107 320 261 243 224 176 171 169 154 134 132 119 123 109 120 116 123 120 128 134 140 140 136
285 286 294 295 275 301 313 329 335 275 238 236 235 246 240 242 267 269 284 297 297 325 316 314 302 269 250 243 235 283 237 249 211 233 246 162 166 172 159 154 144 135 126 140 122 124 126 136 127 125 139 143 144 140
288 291 302 277 287 295 294 289 258 238 230 226 230 249 258 288 278 280 285 298 311 329 316 288 298 282 266 221 205 282 172 229 276 278 316 149 160 177 153 152 150 142 137 134 143 138 134 143 136 133 138 138 139 145
273 275 269 299 327 336 316 257 219 229 236 228 239 237 250 273 270 277 289 297 320 320 289 291 272 261 290 305 6 360 360 333 312 341 148 157 160 161 151 149 148 149 150 145 145 144 142 146 150 142 142 147 150 146
263 275 260 292 306 305 289 238 240 246 248 235 248 249 244 256 263 270 276 286 302 282 242 252 300 286 280 271 214 260 303 332 310 193 170 226 215 149 150 146 152 156 151 156 151 157 151 144 160 148 147 147 153 148
272 278 249 249 292 306 275 237 215 260 247 249 256 260 262 269 273 276 279 279 264 272 269 258 239 236 250 260 276 291 273 234 213 184 199 199 178 158 140 154 161 156 153 156 161 163 160 156 157 163 157 164 159 161
263 265 260 248 255 241 253 246 238 261 265 263 266 269 254 260 276 276 275 265 250 251 213 211 208 224 258 290 290 284 289 260 210 180 189 185 188 185 173 156 165 167 174 165 167 163 167 163 166 166 165 163 164 161
262 268 266 222 225 217 275 252 248 243 269 254 274 277 265 269 264 262 262 258 214 209 224 220 226 241 248 294 278 281 261 250 229 228 227 189 191 195 189 182 165 163 175 176 173 154 167 166 161 166 172 165 155 155
255 271 282 218 207 210 240 238 238 269 272 262 279 267 257 259 263 254 209 177 209 221 220 220 230 241 251 244 268 265 247 234 217 231 211 193 183 188 192 188 172 172 189 179 180 176 167 162 167 166 159 158 163 159
254 263 258 248 207 221 252 223 232 232 240 252 239 247 238 233 253 290 220 214 224 227 220 216 221 237 260 252 247 235 239 217 222 227 204 194 189 191 187 184 186 178 183 190 190 181 181 165 167 170 161 158 162 164
230 228 233 229 210 258 246 228 221 243 246 240 250 263 275 237 252 238 264 276 285 265 208 215 219 238 222 217 216 209 192 202 216 215 196 188 187 189 193 193 198 201 191 180 184 197 187 179 175 163 153 152 168 177
196 224 218 230 219 218 234 240 204 218 241 226 245 260 271 216 259 262 256 323 17 128 176 190 195 202 209 204 213 201 191 198 206 199 184 191 192 190 199 201 195 195 201 179 164 160 174 181 181 160 161 198 188 188
219 217 208 221 209 212 224 248 255 239 297 253 237 196 191 254 222 62 19 341 18 60 138 178 191 203 195 199 193 195 200 195 210 212 197 193 195 195 194 196 195 195 209 212 197 179 159 161 172 183 188 194 194 197
237 243 227 233 249 259 276 266 270 237 227 254 355 310 12 272 61 348 17 62 93 72 97 168 190 199 181 180 199 218 206 201 181 11 238 205 197 203 209 208 207 204 202 200 208 207 190 193 203 201 198 201 203 196
239 260 235 219 266 238 246 247 251 254 340 312 314 276 288 336 52 24 100 112 101 98 83 86 91 101 105 112 153 185 178 188 212 213 193 211 214 213 218 228 232 219 210 201 207 210 203 197 213 209 205 202 200 199
241 240 240 243 230 249 234 219 261 210 208 266 275 280 280 47 61 133 129 117 112 98 89 83 74 65 66 69 126 196 212 219 224 222 222 216 213 220 220 222 216 210 207 204 200 207 218 221 219 223 220 216 220 221
249 241 236 233 205 237 4 351 339 316 302 286 243 327 58 70 81 103 115 117 112 102 91 77 63 43 45 46 59 67 76 229 243 238 242 240 235 225 214 210 202 196 199 201 199 191 204 204 209 210 211 213 213 206
258 273 250 238 245 249 251 292 306 288 249 121 96 90 83 74 82 87 90 91 97 84 61 46 52 57 48 47 41 29 12 335 296 272 257 258 241 235 216 215 209 207 205 203 201 203 203 202 199 199 208 215 216 214
231 218 242 297 67 350 333 305 338 352 68 111 82 105 100 90 79 59 85 87 55 41 44 46 52 48 36 34 33 25 11 344 325 303 255 229 221 228 214 218 213 201 202 207 208 202 206 211 205 207 210 209 213 217
233 256 268 79 2 332 290 21 25 5 73 110 114 124 89 89 84 99 77 66 57 50 50 44 40 37 34 27 14 13 13 4 356 340 213 213 198 198 206 205 211 202 192 200 200 194 201 216 211 207 208 212 215 214